Location: Otero de Herreros
(40.8202°N, 4.2099°W)
Time: 13:59:24
(UTC+00:00)

Daily predictions for brighter satellites

Satellite Brightness Start Highest point End
(mag) Time Altitude Azimuth Time Altitude Azimuth Time Altitude Azimuth
Cosmos 2034 Rocket 4.2 19:23:29 10° S 19:29:42 80° W 19:36:02 10° N
ATLAS 3B R/B 3.1 19:24:02 10° NNW 19:30:59 58° NE 19:38:12 10° SE
SAR-Lupe-1 4.1 19:31:58 10° NNE 19:35:34 89° E 19:39:08 10° SSW
Cosmos 1726 Rocket 3.9 19:31:14 10° SSW 19:35:35 73° W 19:39:56 10° N
SL-16 R/B 4.3 19:37:38 10° NNE 19:39:06 11° NE 19:40:34 10° ENE
Cosmos 2360 Rocket 3.7 19:34:33 10° NW 19:39:42 37° WSW 19:44:49 10° S
Cosmos 2026 Rocket 4.2 19:34:45 10° N 19:40:41 53° E 19:46:40 10° SSE
FALCON 9 DEB 3.5 19:38:44 10° SSW 19:41:33 34° SE 19:44:22 10° ENE
SME Rocket 3.5 19:38:13 10° NNE 19:42:22 86° WNW 19:48:07 10° SSW
Cosmos 1455 2.1 19:41:20 10° S 19:45:04 82° E 19:48:49 10° N
Cosmos 1992 Rocket 4.0 19:40:12 10° NNW 19:45:26 84° ENE 19:50:39 10° SSE
Meteor 2-10 Rocket 4.0 19:40:23 10° SSW 19:45:36 68° W 19:51:06 10° N
COSMOS 2455 4.3 19:42:33 10° SE 19:45:43 15° ESE 19:48:54 10° ENE
SL-4 R/B 2.5 19:44:17 10° SSW 19:48:18 44° SE 19:52:37 10° ENE
CZ-4 R/B 4.0 19:48:49 10° SSW 19:52:13 24° W 19:55:38 10° NW
BREEZE M DEB (TANK) 4.2 19:49:50 10° S 19:52:20 22° ESE 19:57:00 10° ENE
USA 186 1.7 19:49:05 10° SSE 19:52:23 76° ENE 19:55:33 10° N
BREEZE-M DEB (TANK) 2.5 19:51:49 10° WNW 19:54:07 45° SSW 19:57:33 11° SE
Cosmos 2219 Rocket 2.4 19:48:31 10° NNW 19:54:13 77° WSW 19:59:52 10° SSE
Meteor 2-19 Rocket 4.4 19:50:24 10° N 19:56:35 77° E 20:02:45 10° SSE
OBJECT-B 0.9 19:53:59 10° SSE 19:57:08 53° ENE 20:00:18 10° N
Cosmos 1076 Rocket 4.3 19:54:30 10° N 19:58:28 34° ENE 20:01:45 13° SE
COSMOS 2428 2.8 19:52:43 10° NNW 19:58:29 85° WSW 20:04:13 10° SSE
ATLAS 5 CENTAUR R/B 0.6 19:57:10 10° NNW 19:59:02 63° NE 20:01:00 16° SE
Meteor 2-1 Rocket 4.3 19:53:15 10° S 19:59:02 74° E 20:04:58 10° NNE
Cosmos 1627 Rocket 4.5 19:53:06 10° N 19:59:17 78° E 20:05:30 10° S
Cosmos 1634 Rocket 4.0 19:54:49 10° S 20:01:06 83° E 20:07:21 10° N
Cosmos 2344 3.7 19:55:11 10° SW 20:02:46 78° NW 20:10:32 10° NNE
Cosmos 407 Rocket 3.8 19:59:45 10° S 20:04:34 43° ESE 20:09:25 10° NNE
SL-8 R/B 3.8 20:00:32 10° WNW 20:05:22 76° SSW 20:09:04 17° SE
Cosmos 1356 3.7 20:03:01 10° N 20:06:20 45° ENE 20:08:39 17° SE
Cosmos 1408 3.8 20:04:52 10° NNW 20:08:15 41° W 20:11:36 10° SSW
Cosmos 2058 Rocket 4.2 20:08:19 10° SSW 20:12:30 46° WNW 20:16:42 10° N
Cosmos 44 Rocket 4.5 20:12:09 10° SSE 20:15:58 22° ESE 20:19:53 10° ENE
Cosmos 1140 Rocket 3.6 20:12:53 10° S 20:17:48 49° ESE 20:22:44 10° NNE
IRIDIUM 114 4.5 20:13:14 10° SSE 20:18:16 52° E 20:23:20 10° NNE
Cosmos 405 Rocket 2.7 20:14:34 10° N 20:18:34 73° E 20:21:34 16° SSE
NOSS 0 Rocket 3.9 20:13:14 10° NNW 20:19:30 82° ENE 20:24:40 16° SSE
Cosmos 1812 Rocket 3.7 20:15:41 10° S 20:19:59 55° E 20:24:22 10° NNE
Hubble Space Telescope 2.7 20:22:05 10° SSW 20:24:16 14° S 20:24:30 14° S
Timation 2 Rocket 4.1 20:18:06 10° S 20:24:31 55° ESE 20:30:41 10° NE
Cosmos 2237 Rocket 2.3 20:21:44 10° NNW 20:27:19 61° ENE 20:30:47 23° SE
IRIDIUM 103 4.3 20:22:15 10° S 20:27:24 64° E 20:32:34 10° N
Cosmos 2180 Rocket 4.4 20:21:25 10° S 20:27:30 64° E 20:33:33 10° NNE
Cosmos 1825 3.5 20:27:19 10° NNW 20:30:52 39° W 20:34:24 10° SSW
Cosmos 192 4.3 20:26:52 10° NNW 20:31:51 82° ENE 20:35:02 22° SSE
BREEZE M DEB (TANK) 3.9 20:21:14 10° WSW 20:32:39 57° NNW 20:36:04 10° NE
FALCON 9 DEB 3.5 20:35:39 10° WSW 20:38:39 54° NW 20:41:38 10° NE
Cosmos 2227 Rocket 2.1 20:33:43 10° SSW 20:39:19 68° ESE 20:44:57 10° NNE
Cosmos 2082 4.2 20:37:14 24° SSE 20:39:38 34° ESE 20:44:39 10° NE
Cosmos 2058 4.4 20:38:06 10° NNW 20:41:55 35° W 20:45:42 10° SSW
Cosmos 1633 2.5 20:39:04 10° N 20:42:38 60° E 20:43:20 48° SE
FALCON 9 DEB 4.2 20:40:26 10° WSW 20:43:18 39° NNW 20:46:12 10° NE
IRIDIUM 106 4.3 20:40:26 10° S 20:45:39 87° W 20:50:54 10° N
Cosmos 2297 Rocket 2.2 20:40:20 10° SSW 20:45:58 82° WNW 20:51:40 10° NNE
Cosmos 1869 4.5 20:47:58 27° ENE 20:47:58 27° ENE 20:50:38 10° NNE
Cosmos 1655 Rocket 4.0 20:41:09 10° N 20:47:23 65° E 20:50:54 27° SSE
Cosmos 1809 Rocket 4.4 20:41:36 10° N 20:47:43 88° E 20:52:14 19° S
Resurs 01 Rocket 1.6 20:46:10 34° SSE 20:48:00 70° ENE 20:52:28 10° N
Meteor 1-4 Rocket 4.4 20:50:30 18° NE 20:50:30 18° NE 20:51:47 10° NE
Resurs 1-3 3.9 20:46:38 20° S 20:49:37 64° W 20:53:59 10° NNW
Genesis I 3.5 20:47:53 10° NNW 20:51:50 54° NE 20:52:33 46° E
Cosmos 2219 3.3 20:49:38 10° SSW 20:55:15 77° WNW 21:00:54 10° NNE
Cosmos 389 Rocket 4.4 20:52:14 10° SW 20:55:24 31° WNW 20:58:37 10° N
Cosmos 2084 Rocket 3.8 20:54:40 10° SW 20:58:33 57° NW 21:02:33 10° NNE
Meteor 2-14 Rocket 4.4 20:55:39 10° N 21:01:44 88° W 21:05:19 26° S
Cosmos 1190 Rocket 4.1 20:57:00 10° SSW 21:02:13 75° WNW 21:07:27 10° NNE
Ariane Rocket 3.9 20:58:34 13° SSW 21:02:46 44° W 21:07:35 10° NNW
Terra 3.6 21:03:52 18° ENE 21:03:52 18° ENE 21:06:56 10° NNE
BREEZE-M DEB (TANK) 3.4 21:07:13 10° NW 21:08:46 29° N 21:08:46 29° N
SPOT 5 3.9 21:14:08 29° ENE 21:14:08 29° ENE 21:18:04 10° N
Cosmos-2242 3.3 21:12:35 31° SSW 21:14:34 66° W 21:18:51 10° N
SPOT 1/Viking Rocket 3.5 21:14:16 52° SE 21:15:25 69° ENE 21:20:38 10° N
Cosmos 2151 3.6 21:15:20 10° NNW 21:19:32 52° W 21:20:45 39° SW
Cosmos 676 Rocket 3.9 21:17:21 23° SSW 21:20:38 86° WNW 21:25:52 10° NNE
ATLAS 3B R/B 4.2 21:15:16 10° NW 21:21:22 31° WSW 21:26:27 15° SSW
SPOT 3 Rocket 4.0 21:21:18 34° SSW 21:23:24 58° WSW 21:28:31 10° NNW
SL-16 R/B 2.2 21:18:46 10° NNW 21:24:25 63° ENE 21:25:19 55° ESE
USA 215 3.9 21:21:35 30° E 21:24:30 47° NNE 21:30:41 10° NW
SL-4 R/B 3.5 21:23:52 10° W 21:28:02 40° NNW 21:32:28 10° NE
COSMOS 2455 2.8 21:24:50 10° SSW 21:30:51 82° WNW 21:36:54 10° NNE
IGS 5A 4.3 21:30:47 39° SW 21:31:27 43° W 21:35:26 10° NNW
ERS-1 Rocket 3.3 21:33:53 49° ENE 21:33:53 49° ENE 21:38:32 10° N
Landsat 7 4.4 21:34:05 42° SW 21:35:10 51° W 21:39:49 10° NNW
Cosmos 2221 4.0 21:41:54 26° NNE 21:41:54 26° NNE 21:44:01 10° NNE
ARIANE 5 R/B 2.7 21:41:36 70° N 21:41:36 70° N 21:45:31 10° NNW
Meteor 2-15 Rocket 4.4 21:43:55 60° E 21:43:56 60° E 21:49:54 10° NNE
Cosmos 44 Rocket 4.2 21:52:15 10° SW 21:57:09 49° NW 22:02:13 10° NNE
Cosmos 1741 Rocket 4.4 22:05:13 55° NNE 22:05:13 55° NNE 22:09:18 10° NNE
BREEZE-M DEB (TANK) 4.1 21:59:11 10° WNW 22:06:19 44° N 22:06:19 44° N
Cosmos 1850 Rocket 4.4 22:08:07 57° NNE 22:08:07 57° NNE 22:12:16 10° NNE
Nadezhda 2 Rocket 4.3 22:01:13 10° N 22:07:28 86° W 22:07:42 83° SSW
Cosmos 2237 Rocket 4.2 22:07:08 10° WNW 22:10:48 18° W 22:12:38 15° WSW
Spot 2 Rocket 4.2 22:12:18 45° W 22:12:18 45° W 22:17:05 10° NNW
Cosmos 2263 Rocket 3.1 22:16:16 37° NE 22:16:16 37° NE 22:19:39 10° NNE
Aureole 1 Rocket 4.2 22:17:34 49° NNE 22:17:34 49° NNE 22:20:57 10° NNE
SL-08 R/B 4.5 22:16:38 10° N 22:22:24 76° NNE 22:22:24 76° NNE
Resurs 01 Rocket 4.4 22:24:11 10° W 22:24:57 10° W 22:25:43 10° W
Lacrosse 5 rocket 3.7 22:22:49 10° NNW 22:25:34 20° NNE 22:25:34 20° NNE
USA 229 DEB 4.1 22:18:59 10° NNW 22:26:15 59° NE 22:27:01 57° ENE
USA 229 4.1 22:19:04 10° NNW 22:26:21 59° NE 22:27:08 56° ENE
Cosmos 1553 Rocket 4.0 22:33:03 71° NW 22:33:03 71° NW 22:38:42 10° N
Cosmos 841 Rocket 4.4 22:32:44 10° NNW 22:36:20 45° N 22:36:20 45° N
Cosmos 1603 4.3 22:33:27 10° NNW 22:37:52 51° N 22:37:52 51° N
Terra 3.2 22:42:45 35° NW 22:42:45 35° NW 22:45:47 10° NNW
NOSS 3-1 (A) 4.1 22:36:42 10° NNW 22:44:21 70° NE 22:45:03 67° E
USA 215 3.9 23:08:55 46° W 23:08:55 46° W 23:13:49 10° NW
SL-16 R/B 4.3 23:04:17 10° WNW 23:07:12 17° W 23:07:12 17° W
NOSS 3-1 (C) 4.3 23:00:23 10° NW 23:07:47 62° WSW 23:07:47 62° WSW
SeaSat 1 4.2 23:28:39 10° NNE 23:31:05 28° N 23:31:05 28° N
